[[{"header":{"parameterUnit":"m.s-1","parameterCategory":1,"la1":30.2991,"la2":30.254,"lo1":-89.0895,"lo2":-89.0444,"dy":0.0017,"dx":0.0017,"nx":28,"ny":28,"refTime":"2025-12-12T09:00:00:Z","depth":0,"parameterNumber":2,"parameterNumberName":"U-component_of_WINDS"},"data":[0,0,0,0,0,0,0,0,0,0,0,0,0,0,0,0,0,0,0,0,0,0,0,0,0,0,0,0,0,0,0,0,0,0,0,0,0,0,0,0,0,0,0,0,0,0,0,0,0,0,0,0,0,0,0,0,0,0,-2.7351,-2.7351,0,-2.7323,-2.7323,-2.7322,-2.7221,-2.7219,-2.7216,-2.7214,-2.7187,-2.7188,-2.719,0,0,0,0,0,0,0,0,0,0,0,0,0,-2.732,-2.7321,-2.7351,-2.7351,-2.735,-2.7323,-2.7323,-2.7322,-2.7221,-2.7219,-2.7216,-2.7213,-2.7186,-2.7188,-2.719,0,0,0,0,0,0,0,0,0,0,0,0,0,-2.7317,-2.7321,-2.7351,-2.7297,-2.7292,-2.7323,-2.7323,-2.7322,-2.7222,-2.7219,-2.7215,-2.7212,-2.7186,-2.7188,-2.719,-2.7272,0,0,-2.7196,-2.7197,0,0,0,0,0,0,0,0,-2.7317,-2.7318,-2.7305,-2.73,-2.7295,-2.7272,-2.7301,-2.7305,-2.7223,-2.7248,-2.7214,-2.721,-2.7218,-2.7217,-2.722,-2.7271,-2.727,-2.7197,-2.7198,-2.7199,-2.7199,0,0,0,0,0,0,0,-2.7317,-2.7319,-2.734,-2.7305,-2.7299,-2.7274,-2.727,-2.7302,-2.7253,-2.7246,-2.7239,-2.7237,-2.7215,-2.7218,-2.7218,-2.7269,-2.7197,-2.7198,-2.72,-2.7201,-2.7388,-2.7391,0,0,0,0,0,0,-2.7325,-2.7319,-2.7341,-2.7339,-2.7298,-2.7278,-2.7273,-2.7283,-2.7252,-2.7244,-2.724,-2.7232,-2.7216,-2.7216,-2.7217,-2.7311,-2.7199,-2.7201,-2.7202,-2.7384,-2.7388,-2.7392,0,0,0,0,0,0,-2.7325,-2.7328,-2.7342,-2.7327,-2.7327,-2.7282,-2.7294,-2.7284,-2.7287,-2.7247,-2.7238,-2.7252,-2.7213,-2.7214,-2.7259,-2.7309,-2.7202,-2.7204,-2.738,-2.7385,-2.739,-2.75,0,0,0,0,0,0,-2.7324,-2.7328,-2.7358,-2.7329,-2.7328,-2.7384,-2.7297,-2.7286,-2.7291,-2.7281,-2.7256,-2.7249,-2.7211,-2.7257,-2.7261,-2.731,-2.7205,-2.7375,-2.7382,-2.7389,-2.7492,-2.7509,-2.7524,0,0,0,0,0,-2.7323,-2.7391,-2.736,-2.7364,-2.7365,-2.7387,-2.7387,-2.7341,-2.7295,-2.7325,-2.73,-2.725,-2.7303,-2.7262,-2.7267,-2.7316,-2.7372,-2.738,-2.7388,-2.7485,-2.7506,-2.7523,0,0,0,0,0,0,-2.7427,-2.7385,-2.7352,-2.7411,-2.7404,-2.737,-2.7406,-2.7364,-2.737,-2.736,-2.7303,-2.7299,-2.7352,-2.7339,-2.7294,-2.7395,-2.7329,-2.7339,-2.7401,-2.742,-2.7436,-2.7437,-2.7207,0,0,0,0,0,-2.7457,-2.7478,-2.7441,-2.7497,-2.7495,-2.7452,-2.746,-2.7425,-2.7415,-2.7412,-2.739,-2.7382,-2.7397,-2.7408,-2.742,-2.7491,-2.7484,-2.7527,-2.7543,-2.7556,-2.7565,-2.7601,-2.762,-2.742,-2.742,-2.742,0,0,-2.7518,-2.7498,-2.7515,-2.7517,-2.7507,-2.7531,-2.745,-2.7478,-2.7495,-2.7416,-2.7457,-2.7442,-2.743,-2.7488,-2.7513,-2.7479,-2.7619,-2.7567,-2.7577,-2.7579,-2.7612,-2.7631,-2.7648,-2.7425,-2.7424,-2.7423,0,0,-2.7642,-2.763,-2.7675,-2.7667,-2.7653,-2.7624,-2.7636,-2.7609,-2.7596,-2.7636,-2.7578,-2.7598,-2.7625,-2.7619,-2.762,-2.7745,-2.7699,-2.775,-2.7832,-2.7868,-2.7884,-2.7898,-2.7942,-2.7959,-2.7759,-2.776,-2.776,0,-2.7721,-2.7753,-2.7704,-2.7736,-2.7739,-2.7669,-2.7715,-2.771,-2.7701,-2.7705,-2.7667,-2.7701,-2.7688,-2.7744,-2.7775,-2.7778,-2.7789,-2.7752,-2.7886,-2.7899,-2.7911,-2.7953,-2.797,-2.7766,-2.7765,-2.7765,-2.7764,0,-2.785,-2.7874,-2.7913,-2.7906,-2.7914,-2.7953,-2.791,-2.7924,-2.789,-2.7866,-2.7909,-2.7891,-2.7898,-2.791,-2.7876,-2.7962,-2.7941,-2.7896,-2.7828,-2.7937,-2.7975,-2.7991,-2.7775,-2.7773,-2.7771,-2.7769,0,0,-2.8036,-2.8003,-2.8018,-2.8014,-2.7995,-2.8013,-2.805,-2.8057,-2.807,-2.8068,-2.8097,-2.8123,-2.8081,-2.8082,-2.8048,-2.808,-2.818,-2.803,-2.8029,-2.8058,-2.8274,-2.8307,-2.8327,-2.815,-2.8153,-2.8156,-2.8275,0,-2.8154,-2.8214,-2.8171,-2.8239,-2.8261,-2.8196,-2.8228,-2.8221,-2.82,-2.8216,-2.8193,-2.8212,-2.8156,-2.8156,-2.8185,-2.8162,-2.8223,-2.8153,-2.8178,-2.8179,-2.8181,-2.8346,-2.8382,-2.8495,-2.8289,-2.8292,-2.8294,0,-2.8298,-2.8301,-2.8372,-2.8349,-2.8357,-2.8386,-2.839,-2.8406,-2.8397,-2.838,-2.8382,-2.834,-2.8376,-2.8311,-2.8359,-2.8313,-2.8321,-2.8312,-2.8315,-2.8314,-2.8242,-2.835,-2.853,-2.8546,-2.8317,-2.8315,-2.8313,0,-2.8426,-2.8449,-2.8493,-2.8493,-2.8468,-2.849,-2.8481,-2.8468,-2.8476,-2.848,-2.8484,-2.8492,-2.8497,-2.8505,-2.8466,-2.8423,-2.852,-2.8452,-2.8507,-2.8508,-2.8529,-2.8528,-2.8712,-2.8536,-2.8536,-2.8536,-2.8535,0,-2.856,-2.8606,-2.8551,-2.8578,-2.8628,-2.8579,-2.863,-2.8614,-2.8604,-2.8627,-2.8573,-2.8596,-2.8545,-2.8564,-2.8534,-2.8579,-2.8582,-2.8569,-2.856,-2.8573,-2.8575,-2.8577,-2.8567,-2.854,-2.8539,-2.8538,-2.8538,0,-2.8711,-2.8676,-2.872,-2.8694,-2.8688,-2.8726,-2.8703,-2.8728,-2.8705,-2.8736,-2.874,-2.8703,-2.8723,-2.8686,-2.8701,-2.8681,-2.8744,-2.8724,-2.8747,-2.8741,-2.8797,-2.8792,-2.8988,-2.9011,-2.8822,-2.8824,-2.8826,0,-2.8798,-2.8832,-2.8809,-2.8821,-2.8815,-2.8835,-2.8843,-2.8798,-2.8808,-2.8801,-2.8827,-2.8842,-2.8852,-2.8886,-2.8861,-2.8872,-2.8851,-2.8919,-2.8853,-2.8865,-2.8852,-2.885,-2.8853,-2.8933,-2.8935,-2.8937,-2.8938,0,-2.8957,-2.8939,-2.8951,-2.8959,-2.897,-2.8974,-2.8974,-2.8987,-2.8939,-2.8954,-2.8973,-2.8981,-2.8996,-2.9012,-2.9018,-2.9009,-2.8966,-2.896,-2.8973,-2.8986,-2.8997,-2.8991,-2.8783,-2.8955,-2.8953,-2.8952,-2.8951,-2.895,-2.9078,-2.9105,-2.9094,-2.911,-2.9106,-2.9108,-2.913,-2.911,-2.9125,-2.9134,-2.9107,-2.9133,-2.9124,-2.9127,-2.9124,-2.9144,-2.9113,-2.9133,-2.9137,-2.9142,-2.9151,-2.8996,-2.9145,-2.9144,-2.9144,-2.9143,-2.9143,0,-2.9233,-2.9224,-2.924,-2.9241,-2.9255,-2.9214,-2.9213,-2.9227,-2.925,-2.9246,-2.9257,-2.928,-2.9295,-2.9273,-2.9284,-2.9305,-2.9286,-2.931,-2.9307,-2.9306,-2.9178,-2.9165,-2.9325,-2.9325,-2.9325,-2.9325,-2.9325,-2.9325,-2.9316,-2.9359,-2.934,-2.9382,-2.9371,-2.9396,-2.9399,-2.9401,-2.9397,-2.9425,-2.9438,-2.9423,-2.9412,-2.9422,-2.9435,-2.9428,-2.9435,-2.9466,-2.9452,-2.9332,-2.9315,-2.9297,-2.9285,-2.9468,-2.9468,-2.9577,-2.9579,-2.9579]},{"header":{"parameterUnit":"m.s-1","parameterCategory":1,"la1":30.2991,"la2":30.254,"lo1":-89.0895,"lo2":-89.0444,"dy":0.0017,"dx":0.0017,"nx":28,"ny":28,"refTime":"2025-12-12T09:00:00:Z","depth":0,"parameterNumber":3,"parameterNumberName":"V-component_of_WINDS"},"data":[0,0,0,0,0,0,0,0,0,0,0,0,0,0,0,0,0,0,0,0,0,0,0,0,0,0,0,0,0,0,0,0,0,0,0,0,0,0,0,0,0,0,0,0,0,0,0,0,0,0,0,0,0,0,0,0,0,0,0.897,0.8972,0,0.9133,0.9135,0.9137,0.9252,0.9253,0.9254,0.9254,0.9419,0.9422,0.9426,0,0,0,0,0,0,0,0,0,0,0,0,0,0.8755,0.8759,0.897,0.8972,0.8974,0.9133,0.9135,0.9138,0.9252,0.9253,0.9254,0.9255,0.9418,0.9422,0.9426,0,0,0,0,0,0,0,0,0,0,0,0,0,0.8876,0.876,0.897,0.905,0.9059,0.9133,0.9136,0.9138,0.9251,0.9253,0.9254,0.9255,0.9416,0.9421,0.9427,0.9432,0,0,0.9443,0.9445,0,0,0,0,0,0,0,0,0.8869,0.8884,0.9036,0.9045,0.9055,0.9174,0.912,0.9237,0.9251,0.9178,0.9254,0.9256,0.9336,0.9348,0.9376,0.944,0.9447,0.9443,0.9447,0.9449,0.945,0,0,0,0,0,0,0,0.8861,0.8878,0.9035,0.9038,0.905,0.9078,0.9096,0.9143,0.9247,0.9185,0.9193,0.9211,0.9341,0.937,0.938,0.945,0.9443,0.9448,0.9451,0.9453,0.953,0.9529,0,0,0,0,0,0,0.884,0.887,0.9029,0.904,0.8964,0.9081,0.9101,0.9134,0.9247,0.9266,0.921,0.9216,0.936,0.9374,0.9386,0.9403,0.9449,0.9454,0.9457,0.9531,0.953,0.9529,0,0,0,0,0,0,0.8835,0.8853,0.9023,0.8957,0.8981,0.9083,0.9119,0.9137,0.9166,0.9267,0.9286,0.922,0.9362,0.9379,0.9421,0.941,0.9456,0.9461,0.9533,0.9531,0.9529,0.9434,0,0,0,0,0,0,0.8828,0.8851,0.8854,0.8957,0.8984,0.9055,0.9118,0.9139,0.9175,0.9184,0.9281,0.9299,0.9364,0.9413,0.9426,0.9418,0.9465,0.9534,0.9532,0.953,0.9439,0.9429,0.9421,0,0,0,0,0,0.882,0.882,0.8854,0.8872,0.8991,0.9054,0.907,0.9146,0.9173,0.9178,0.9243,0.9296,0.9409,0.9416,0.9432,0.9426,0.9535,0.9532,0.953,0.9443,0.9431,0.9422,0,0,0,0,0,0,0.8712,0.8834,0.8874,0.8906,0.8969,0.9073,0.9081,0.9131,0.9187,0.9193,0.9285,0.9306,0.9339,0.9386,0.9392,0.9439,0.9479,0.9479,0.9407,0.9397,0.9388,0.9376,0.947,0,0,0,0,0,0.8692,0.8733,0.8838,0.8857,0.8886,0.8978,0.9008,0.9062,0.913,0.9157,0.9225,0.9289,0.9339,0.937,0.9422,0.9446,0.947,0.945,0.9441,0.9433,0.9433,0.9452,0.9445,0.952,0.952,0.952,0,0,0.865,0.8723,0.8743,0.8837,0.8892,0.8933,0.8999,0.9039,0.9071,0.9163,0.9208,0.926,0.9337,0.9371,0.9389,0.9411,0.9418,0.943,0.9423,0.9427,0.9448,0.9441,0.9435,0.9518,0.9519,0.9519,0,0,0.8597,0.8655,0.8678,0.8733,0.8816,0.8877,0.8882,0.8979,0.9018,0.9065,0.9135,0.9174,0.9258,0.9311,0.9349,0.9317,0.9368,0.9331,0.9286,0.9303,0.9297,0.9293,0.9283,0.9279,0.933,0.933,0.933,0,0.8535,0.8601,0.8683,0.8721,0.876,0.8847,0.8871,0.8919,0.9014,0.904,0.9064,0.9173,0.9231,0.9279,0.9272,0.9299,0.9309,0.9321,0.9292,0.9288,0.9284,0.9277,0.9273,0.9325,0.9326,0.9326,0.9327,0,0.8522,0.8566,0.8575,0.8667,0.8707,0.8737,0.8824,0.8855,0.8906,0.8964,0.9011,0.9084,0.9153,0.9168,0.9217,0.9224,0.9236,0.9274,0.9317,0.9271,0.9265,0.9263,0.9318,0.932,0.9321,0.9323,0,0,0.8404,0.8543,0.8545,0.8588,0.8687,0.8723,0.8757,0.8826,0.8852,0.8914,0.8947,0.9017,0.9054,0.9097,0.9152,0.9167,0.914,0.9204,0.9207,0.9191,0.9155,0.9126,0.9121,0.9174,0.9174,0.9173,0.9149,0,0.8368,0.8436,0.8512,0.8553,0.8596,0.868,0.871,0.8774,0.8829,0.8874,0.8935,0.8985,0.9028,0.9055,0.9073,0.9139,0.9134,0.9142,0.9205,0.9207,0.9185,0.9118,0.9088,0.9062,0.9147,0.9147,0.9146,0,0.8334,0.8394,0.844,0.8538,0.8558,0.8584,0.8655,0.8696,0.877,0.881,0.8859,0.8919,0.896,0.8996,0.9055,0.9058,0.9089,0.9125,0.9126,0.9136,0.9175,0.9128,0.9055,0.9051,0.9143,0.9143,0.9144,0,0.8246,0.8339,0.838,0.8414,0.8527,0.8544,0.8592,0.8668,0.8705,0.8766,0.8792,0.8856,0.8891,0.894,0.9016,0.9035,0.9067,0.9109,0.9102,0.91,0.9106,0.9105,0.9038,0.9122,0.9122,0.9122,0.9122,0,0.8198,0.8224,0.8342,0.8367,0.8398,0.8485,0.8514,0.8569,0.8636,0.8674,0.8748,0.8782,0.8879,0.8924,0.8984,0.9024,0.9039,0.9073,0.9089,0.9068,0.9063,0.909,0.9094,0.9121,0.9121,0.9122,0.9122,0,0.8106,0.8186,0.8236,0.834,0.8367,0.8386,0.8475,0.8502,0.8563,0.8609,0.8625,0.872,0.8777,0.8857,0.8938,0.8978,0.9011,0.9035,0.8986,0.8996,0.8986,0.8986,0.8935,0.8933,0.9015,0.9015,0.9014,0,0.8071,0.8093,0.82,0.8231,0.8277,0.8325,0.8364,0.8451,0.8488,0.8576,0.8593,0.8656,0.8711,0.8799,0.8875,0.8937,0.8965,0.8943,0.8975,0.8953,0.8967,0.8966,0.8969,0.8935,0.8934,0.8933,0.8932,0,0.8001,0.804,0.8094,0.8162,0.8207,0.8265,0.8325,0.8346,0.8446,0.8484,0.8544,0.8587,0.8671,0.8734,0.8807,0.8856,0.8911,0.8921,0.8923,0.8902,0.8874,0.8892,0.8967,0.8922,0.8923,0.8924,0.8924,0.8925,0.7939,0.7963,0.8042,0.81,0.8156,0.8211,0.8243,0.8308,0.836,0.8436,0.8484,0.8542,0.8617,0.8722,0.8769,0.8816,0.8838,0.884,0.8841,0.8841,0.8835,0.8865,0.8829,0.8829,0.883,0.883,0.883,0,0.7874,0.793,0.7983,0.8067,0.8112,0.816,0.8231,0.8266,0.8316,0.8382,0.8436,0.8506,0.8567,0.8648,0.8715,0.8737,0.8764,0.8752,0.8752,0.8763,0.881,0.8802,0.8729,0.8729,0.8729,0.8729,0.8729,0.8729,0.7847,0.7891,0.794,0.8013,0.8068,0.8127,0.8163,0.8215,0.8269,0.8344,0.8396,0.8448,0.8521,0.8594,0.8653,0.8675,0.8697,0.8678,0.8708,0.875,0.8759,0.8768,0.8762,0.8681,0.8681,0.8658,0.8657,0.8657]}]]